EA7RX-13 Weather Reports


Display with metric or nautical units.
time (UTC)temp
F
wind
direction
speed
MPH
gust
MPH
rain 1hr
in
rain 24hr
in
rain mn
in
humidity
%
barometer
mb
20260903091631 90 0.0 0.0 0.00 0.00 0.00 44 1019.1
20260903090631 89 0.0 0.0 0.00 0.00 0.00 44 1019.1
20260903085631 89 0.0 0.0 0.00 0.00 0.00 46 1019.0
20260903084631 88 0.0 0.0 0.00 0.00 0.00 46 1019.0
20260903083631 87 0.0 0.0 0.00 0.00 0.00 49 1019.0
20260903082631 86 0.0 0.0 0.00 0.00 0.00 48 1019.1
20260903081631 86 0.0 0.0 0.00 0.00 0.00 50 1019.1
20260903080631 84 0.0 0.0 0.00 0.00 0.00 53 1019.2
20260903075631 84 0.0 0.0 0.00 0.00 0.00 57 1019.3
20260903074631 82 0.0 0.0 0.00 0.00 0.00 60 1019.5
20260903073631 81 0.0 0.0 0.00 0.00 0.00 62 1019.5
20260903072631 81 0.0 0.0 0.00 0.00 0.00 67 1019.5
20260903071631 79 0.0 0.0 0.00 0.00 0.00 68 1019.7
20260903070633 80 0.0 0.0 0.00 0.00 0.00 60 1019.5
20260903065631 80 0.0 0.0 0.00 0.00 0.00 59 1019.4
20260903064631 78 0.0 0.0 0.00 0.00 0.00 60 1019.5
20260903063631 78 0.0 0.0 0.00 0.00 0.00 58 1019.4
20260903062631 78 0.0 0.0 0.00 0.00 0.00 60 1019.3
20260903061631 78 0.0 0.0 0.00 0.00 0.00 58 1019.1
20260903060631 80 0.0 0.0 0.00 0.00 0.00 53 1018.8
20260903055631 80 0.0 0.0 0.00 0.00 0.00 52 1018.7
20260903054631 79 0.0 0.0 0.00 0.00 0.00 54 1018.6
20260903053631 80 0.0 0.0 0.00 0.00 0.00 51 1018.5
20260903052631 80 0.0 0.0 0.00 0.00 0.00 51 1018.4
20260903051631 81 0.0 0.0 0.00 0.00 0.00 51 1018.3
20260903050631 80 0.0 0.0 0.00 0.00 0.00 52 1018.4
20260903045631 81 0.0 0.0 0.00 0.00 0.00 50 1018.3
20260903044631 81 0.0 0.0 0.00 0.00 0.00 51 1018.2
20260903043631 80 0.0 0.0 0.00 0.00 0.00 51 1018.2
20260903042631 80 0.0 0.0 0.00 0.00 0.00 52 1018.1
20260903041631 81 0.0 0.0 0.00 0.00 0.00 51 1018.2
20260903040631 81 0.0 0.0 0.00 0.00 0.00 51 1018.1
20260903035631 81 0.0 0.0 0.00 0.00 0.00 51 1018.0
20260903034631 81 0.0 0.0 0.00 0.00 0.00 51 1018.0
20260903033631 81 0.0 0.0 0.00 0.00 0.00 51 1018.2
20260903032631 80 0.0 0.0 0.00 0.00 0.00 52 1018.2
20260903031631 80 0.0 0.0 0.00 0.00 0.00 53 1018.2
20260903030631 80 0.0 0.0 0.00 0.00 0.00 53 1018.2
20260903025631 80 0.0 0.0 0.00 0.00 0.00 52 1018.3
20260903024631 80 0.0 0.0 0.00 0.00 0.00 54 1018.4
20260903023631 81 0.0 0.0 0.00 0.00 0.00 53 1018.3
20260903022631 80 0.0 0.0 0.00 0.00 0.00 54 1018.4
20260903021631 81 0.0 0.0 0.00 0.00 0.00 53 1018.4
20260903020631 81 0.0 0.0 0.00 0.00 0.00 52 1018.4
20260903015631 82 0.0 0.0 0.00 0.00 0.00 49 1018.2
20260903014631 81 0.0 0.0 0.00 0.00 0.00 54 1018.5
20260903013631 81 0.0 0.0 0.00 0.00 0.00 56 1018.5
20260903012631 81 0.0 0.0 0.00 0.00 0.00 54 1018.3
20260903011631 81 0.0 0.0 0.00 0.00 0.00 53 1018.5
20260903010631 81 0.0 0.0 0.00 0.00 0.00 53 1018.6
20260903005631 81 0.0 0.0 0.00 0.00 0.00 54 1018.5
20260903004631 82 0.0 0.0 0.00 0.00 0.00 52 1018.5
20260903003631 83 0.0 0.0 0.00 0.00 0.00 51 1018.4
20260903002631 84 0.0 0.0 0.00 0.00 0.00 49 1018.3
20260903001631 84 0.0 0.0 0.00 0.00 0.00 49 1018.4
20260903000631 85 0.0 0.0 0.00 0.00 0.00 47 1018.2
20260902235631 84 0.0 0.0 0.00 0.00 0.00 49 1018.3
20260902234631 85 0.0 0.0 0.00 0.00 0.00 48 1018.2
20260902233631 85 0.0 0.0 0.00 0.00 0.00 49 1018.1
20260902232631 84 0.0 0.0 0.00 0.00 0.00 48 1018.2
20260902231631 84 0.0 0.0 0.00 0.00 0.00 49 1018.3
20260902230631 85 0.0 0.0 0.00 0.00 0.00 49 1018.2
20260902225631 84 0.0 0.0 0.00 0.00 0.00 50 1018.3
20260902224631 84 0.0 0.0 0.00 0.00 0.00 50 1018.2
20260902223631 84 0.0 0.0 0.00 0.00 0.00 49 1018.1
20260902222631 84 0.0 0.0 0.00 0.00 0.00 48 1018.1
20260902221631 85 0.0 0.0 0.00 0.00 0.00 48 1017.9
20260902220631 85 0.0 0.0 0.00 0.00 0.00 47 1017.8
20260902215631 86 0.0 0.0 0.00 0.00 0.00 46 1017.8
20260902214631 86 0.0 0.0 0.00 0.00 0.00 47 1017.7
20260902213631 86 0.0 0.0 0.00 0.00 0.00 48 1017.8
20260902212631 85 0.0 0.0 0.00 0.00 0.00 48 1017.8
20260902211631 85 0.0 0.0 0.00 0.00 0.00 50 1017.7
20260902210631 85 0.0 0.0 0.00 0.00 0.00 49 1017.6
20260902205631 86 0.0 0.0 0.00 0.00 0.00 48 1017.4
20260902204631 85 0.0 0.0 0.00 0.00 0.00 47 1017.5
20260902203631 85 0.0 0.0 0.00 0.00 0.00 46 1017.3
20260902202631 85 0.0 0.0 0.00 0.00 0.00 49 1017.1
20260902201631 86 0.0 0.0 0.00 0.00 0.00 47 1016.9
20260902200631 86 0.0 0.0 0.00 0.00 0.00 49 1016.8
20260902195631 86 0.0 0.0 0.00 0.00 0.00 48 1016.7
20260902194631 87 0.0 0.0 0.00 0.00 0.00 47 1016.4
20260902193631 87 0.0 0.0 0.00 0.00 0.00 49 1016.2
20260902192631 88 0.0 0.0 0.00 0.00 0.00 46 1016.0
20260902191631 88 0.0 0.0 0.00 0.00 0.00 47 1015.8
20260902190631 90 0.0 0.0 0.00 0.00 0.00 44 1015.6
20260902185631 91 0.0 0.0 0.00 0.00 0.00 41 1015.3
20260902184631 92 0.0 0.0 0.00 0.00 0.00 39 1015.1
20260902183631 93 0.0 0.0 0.00 0.00 0.00 37 1014.9
20260902182631 94 0.0 0.0 0.00 0.00 0.00 36 1014.8
20260902181631 96 0.0 0.0 0.00 0.00 0.00 36 1014.7
20260902180631 98 0.0 0.0 0.00 0.00 0.00 34 1014.4
20260902175631 99 0.0 0.0 0.00 0.00 0.00 33 1014.4
20260902174631 100 0.0 0.0 0.00 0.00 0.00 30 1014.2
20260902173631 102 0.0 0.0 0.00 0.00 0.00 28 1014.1
20260902172631 103 0.0 0.0 0.00 0.00 0.00 28 1013.9
20260902171631 102 0.0 0.0 0.00 0.00 0.00 28 1013.9
20260902170631 103 0.0 0.0 0.00 0.00 0.00 30 1013.7
20260902165631 103 0.0 0.0 0.00 0.00 0.00 29 1013.8
20260902164631 103 0.0 0.0 0.00 0.00 0.00 29 1013.7
20260902163631 102 0.0 0.0 0.00 0.00 0.00 34 1013.8
20260902162631 103 0.0 0.0 0.00 0.00 0.00 28 1013.7
20260902161631 104 0.0 0.0 0.00 0.00 0.00 28 1013.7
20260902160631 104 0.0 0.0 0.00 0.00 0.00 29 1013.7
20260902155631 104 0.0 0.0 0.00 0.00 0.00 28 1013.7
20260902154631 104 0.0 0.0 0.00 0.00 0.00 28 1013.8
20260902153631 104 0.0 0.0 0.00 0.00 0.00 29 1013.8
20260902152631 105 0.0 0.0 0.00 0.00 0.00 28 1013.7
20260902151631 106 0.0 0.0 0.00 0.00 0.00 29 1013.7
20260902150631 105 0.0 0.0 0.00 0.00 0.00 28 1013.8
20260902145631 106 0.0 0.0 0.00 0.00 0.00 29 1013.9
20260902144631 106 0.0 0.0 0.00 0.00 0.00 30 1013.9
20260902143631 104 0.0 0.0 0.00 0.00 0.00 31 1014.1
20260902142631 104 0.0 0.0 0.00 0.00 0.00 32 1014.4
20260902141631 106 0.0 0.0 0.00 0.00 0.00 32 1014.3
20260902140631 104 0.0 0.0 0.00 0.00 0.00 32 1014.6
20260902135631 104 0.0 0.0 0.00 0.00 0.00 33 1014.7
20260902134631 105 0.0 0.0 0.00 0.00 0.00 32 1014.8
20260902133631 103 0.0 0.0 0.00 0.00 0.00 35 1015.0
20260902132631 104 0.0 0.0 0.00 0.00 0.00 35 1015.0
20260902131631 104 0.0 0.0 0.00 0.00 0.00 35 1015.1
20260902130631 104 0.0 0.0 0.00 0.00 0.00 36 1015.3
20260902125631 104 0.0 0.0 0.00 0.00 0.00 36 1015.3
20260902124631 102 0.0 0.0 0.00 0.00 0.00 38 1015.5
20260902123631 100 0.0 0.0 0.00 0.00 0.00 39 1015.8
20260902122631 100 0.0 0.0 0.00 0.00 0.00 40 1016.0
20260902121631 102 0.0 0.0 0.00 0.00 0.00 40 1015.9
20260902120631 98 0.0 0.0 0.00 0.00 0.00 42 1016.2
20260902115631 98 0.0 0.0 0.00 0.00 0.00 43 1016.3
20260902114631 100 0.0 0.0 0.00 0.00 0.00 42 1016.3
20260902113631 96 0.0 0.0 0.00 0.00 0.00 46 1016.7
20260902112631 96 0.0 0.0 0.00 0.00 0.00 46 1016.8
20260902111631 96 0.0 0.0 0.00 0.00 0.00 47 1017.0
20260902110631 94 0.0 0.0 0.00 0.00 0.00 50 1017.3
20260902105631 94 0.0 0.0 0.00 0.00 0.00 50 1017.3
20260902104631 94 0.0 0.0 0.00 0.00 0.00 51 1017.5
20260902103631 91 0.0 0.0 0.00 0.00 0.00 56 1017.6
20260902102631 90 0.0 0.0 0.00 0.00 0.00 57 1017.7
20260902101631 89 0.0 0.0 0.00 0.00 0.00 61 1017.9
20260902100631 89 0.0 0.0 0.00 0.00 0.00 61 1018.0
20260902095631 88 0.0 0.0 0.00 0.00 0.00 63 1018.0
20260902094631 87 0.0 0.0 0.00 0.00 0.00 63 1018.0
20260902093631 86 0.0 0.0 0.00 0.00 0.00 66 1018.2
20260902092631 86 0.0 0.0 0.00 0.00 0.00 68 1018.2